Location: Brienzwiler
(46.7508°N, 8.1014°E)
Time: 16:12:55
(UTC+00:00)

ERS-1 Rocket - Pass Details

Date: 05 July 2020
Orbit: 752 x 758 km, 98.5° (Epoch: 11 August)

Event Time Altitude Azimuth Distance (km) Brightness Sun altitude
Exits shadow 20:56:51 15° 164° (SSE) 1,949 4.5 -12.2°
Maximum altitude 21:01:03 89° 75° (ENE) 766 3.0 -12.6°
Drops below altitude 10° 21:06:08 10° 346° (NNW) 2,298 6.7 -13.1°
Sets 21:08:26 0° 347° (NNW) 3,228 7.7 -13.3°
